Regional Weather Roundup
Issued by NWS Cleveland, OH

Home | Current Version | Previous Version | Graphics & Text | Print | Product List | Glossary On
Versions: 1 2 3 4 5 6 7 8 9 10 11 12 13 14 15 16 17 18 19 20 21 22 23 24 25 26 27 28 29 30 31 32 33 34 35 36 37 38 39 40 41 42 43 44 45 46 47 48 49 50
000
ASUS41 KCLE 061400
RWRCLE
OHIO REGIONAL WEATHER ROUNDUP
NATIONAL WEATHER SERVICE WILMINGTON, OH
900 AM EST FRI MAR 06 2015

NOTE: "FAIR" INDICATES FEW OR NO CLOUDS BELOW 12,000 FEET WITH NO
SIGNIFICANT WEATHER AND/OR OBSTRUCTIONS TO VISIBILITY.

OHZ001>008-015>018-024>027-034-035-043-044-061500-
   NORTHWEST OHIO

CITY           SKY/WX    TMP DP  RH WIND       PRES   REMARKS
DEFIANCE       MOSUNNY    6   1  80 SW7       30.52R WCI  -6
FINDLAY        MOSUNNY    7   3  84 S7        30.51R WCI  -5
TOLEDO EXPRESS MOSUNNY    9   4  80 SW7       30.51R WCI  -2
TOLEDO EXEC    MOSUNNY    7   2  80 SW8       30.53R WCI  -6
LIMA           SUNNY      9   3  77 S8        30.50R WCI  -3
$$

OHZ009>014-019>023-028>033-038-089-061500-
   NORTHEAST OHIO

CITY           SKY/WX    TMP DP  RH WIND       PRES   REMARKS
CLE-HOPKINS    MOSUNNY   11   3  70 S8        30.54R WCI  -1
CLE-LAKEFRONT  SUNNY     12   4  70 S9        30.52R WCI   0
CUY CO. ARPT   SUNNY     14   5  67 SW8       30.51R WCI   3
LORAIN-ELYRIA  MOSUNNY    6   2  83 SW8       30.52R WCI  -7
ASHTABULA      SUNNY      3  -1  83 S6        30.51R WCI  -8
AKRON-CANTON   MOSUNNY    8   4  83 SW6       30.49R WCI  -2
WOOSTER        NOT AVBL
MANSFIELD      MOSUNNY   10   6  84 S8        30.48R WCI  -2
YOUNGSTOWN     SUNNY      7   3  84 S7        30.49S WCI  -5
$$

OHZ042-051>053-060>062-070>072-077>081-061500-
  SOUTHWEST OHIO

CITY           SKY/WX    TMP DP  RH WIND       PRES   REMARKS
CINC-COVINGTON MOSUNNY    8   6  92 S5        30.55R WCI   0
CINC-LUNKEN    LGT SNOW   7   7 100 CALM      30.61S FOG
HAMILTON       SUNNY      9   6  88 CALM      30.58S FOG
DAYTON         NOT AVBL
WRIGHT-PAT AFB MOSUNNY   12   7  80 CALM      30.54S
DAYTON GENERAL MOSUNNY   12   5  73 S7        30.53R WCI   1
WILMINGTON     MOSUNNY   11   5  77 S3        30.53R
$$

OHZ036-037-039>041-045>050-054>059-063>069-073>076-082>088-061500-
  CENTRAL AND SOUTHEAST OHIO

CITY           SKY/WX    TMP DP  RH WIND       PRES   REMARKS
COLUMBUS       MOSUNNY   10   5  80 S3        30.55R
OSU AIRPORT    MOSUNNY   12   6  77 SW6       30.54R WCI   3
BOLTON FIELD   SUNNY     10   7  85 SW3       30.55R
RICKENBACK AFB NOT AVBL
NEWARK         MOSUNNY    5   5 100 CALM      30.55R
MARION         MOSUNNY    6   2  83 S7        30.52R FOG     WCI  -6
LANCASTER      MOSUNNY    6   2  83 CALM      30.55R FOG
ZANESVILLE     SUNNY      2   0  91 CALM      30.55R
NEW PHILLY     SUNNY      7   1  76 SE3       30.55R
$$


USA.gov is the U.S. government's official web portal to all federal, state and local government web resources and services.